Tracking 19800 objects as of 24-Jul-2019
HD Live streaming from Space Station
objects crossing your sky now

SL-8 DEB *

Track SL-8 DEB * now!
10-day predictions


NORAD ID: 14345
Int'l Code: 1979-089C
Perigee: 680.9 km
Apogee: 692.8 km
Inclination: 74.0 °
Period: 98.3 minutes
Semi major axis: 7057 km
RCS: 0.0065 m2 (small)
Launch date: October 11, 1979
Source: Commonwealth of Independent States (former USSR) (CIS)
Launch site: PLESETSK MISSILE AND SPACE COMPLEX (PKMTR)

Note: This is SATELLITE DEBRIS
aabbcc
Your satellite tracking list
Your tracking list is empty




NASA's NSSDC Master Catalog

Two Line Element Set (TLE):
1 14345U 79089C   19203.94204361 +.00000214 +00000-0 +46510-4 0  9991
2 14345 074.0225 160.5597 0008434 119.8138 302.7329 14.64180996908553
Source of the keplerian elements: AFSPC